CSC6139 ZLXN-ZUUU

Flight info

Callsign CSC6139
Flight time 1h 15m
Altitude 35100
Route UPVOP W111 BIGUX B330 MEXAD
Aircraft A321/M-SDE3FGHIRWY/LB1

Departure

Time 2026-05-04 11:22
Airport Xining Caojiabao International Airport (ZLXN)

Arrival

Time 2026-05-04 12:37
Airport Chengdu Shuangliu International Airport (ZUUU)
Time Latitude Longitude Altitude Speed Heading
2026-05-04 10:51 36.52586 102.04353 7098 ft 0 kts 198°
2026-05-04 11:12 36.52640 102.04424 7089 ft 1 kts 289°
2026-05-04 11:12 36.52639 102.04425 7089 ft 0 kts 289°
2026-05-04 11:16 36.52454 102.05407 7093 ft 24 kts 109°
2026-05-04 11:16 36.52396 102.05614 7092 ft 27 kts 109°
2026-05-04 11:16 36.52353 102.05771 7092 ft 17 kts 109°
2026-05-04 11:17 36.52342 102.05809 7092 ft 6 kts 109°
2026-05-04 11:17 36.52340 102.05870 7089 ft 8 kts 68°
2026-05-04 11:19 36.52373 102.05898 7089 ft 3 kts 22°
2026-05-04 11:19 36.52410 102.05916 7088 ft 9 kts 20°
2026-05-04 11:19 36.52461 102.05933 7085 ft 5 kts 10°
2026-05-04 11:19 36.52481 102.05919 7085 ft 6 kts 317°
2026-05-04 11:20 36.52493 102.05889 7085 ft 0 kts 290°
2026-05-04 11:20 36.52493 102.05888 7085 ft 2 kts 290°
2026-05-04 11:20 36.52524 102.05776 7088 ft 44 kts 288°
2026-05-04 11:20 36.52786 102.04837 7091 ft 127 kts 289°
2026-05-04 11:22 36.55485 101.94701 9363 ft 224 kts 288°
2026-05-04 11:22 36.55973 101.92800 9473 ft 237 kts 288°
2026-05-04 11:23 36.56492 101.90788 9645 ft 250 kts 289°
2026-05-04 11:23 36.56841 101.88661 9975 ft 255 kts 267°
2026-05-04 11:24 36.47835 101.90616 12427 ft 318 kts 128°
2026-05-04 11:25 36.46488 101.92789 13143 ft 317 kts 128°
2026-05-04 11:25 36.45141 101.94962 13781 ft 318 kts 128°
2026-05-04 11:25 36.43676 101.97019 14403 ft 318 kts 136°
2026-05-04 11:26 36.40333 102.00677 15570 ft 323 kts 142°
2026-05-04 11:27 36.32468 102.17464 18304 ft 386 kts 76°
2026-05-04 11:28 36.33270 102.20645 18438 ft 400 kts 68°
2026-05-04 11:28 36.34223 102.23952 18565 ft 415 kts 68°
2026-05-04 11:28 36.35198 102.27367 18925 ft 422 kts 68°
2026-05-04 11:28 36.36178 102.30823 19423 ft 426 kts 69°
2026-05-04 11:29 36.37175 102.34350 19923 ft 430 kts 69°
2026-05-04 11:29 36.38154 102.37817 20422 ft 432 kts 69°
2026-05-04 11:29 36.39154 102.41351 20927 ft 435 kts 69°
2026-05-04 11:29 36.40160 102.44903 21409 ft 438 kts 69°
2026-05-04 11:31 36.44900 102.71039 24404 ft 463 kts 97°
2026-05-04 11:33 36.41103 102.99176 26771 ft 481 kts 98°
2026-05-04 11:33 36.40459 103.03256 27096 ft 484 kts 98°
2026-05-04 11:33 36.39606 103.07309 27425 ft 489 kts 109°
2026-05-04 11:34 36.37989 103.11032 27740 ft 496 kts 125°
2026-05-04 11:34 36.35779 103.14351 28072 ft 499 kts 130°
2026-05-04 11:34 36.33514 103.17614 28443 ft 500 kts 130°
2026-05-04 11:34 36.31240 103.20875 28930 ft 499 kts 130°
2026-05-04 11:35 36.28970 103.24123 29377 ft 498 kts 129°
2026-05-04 11:35 36.26700 103.27372 29812 ft 498 kts 129°
2026-05-04 11:35 36.24435 103.30620 30173 ft 498 kts 130°
2026-05-04 11:35 36.22177 103.33860 30516 ft 498 kts 130°
2026-05-04 11:36 36.19913 103.37110 30831 ft 499 kts 129°
2026-05-04 11:36 36.17646 103.40362 31179 ft 498 kts 129°
2026-05-04 11:36 36.15378 103.43614 31527 ft 499 kts 129°
2026-05-04 11:36 36.13103 103.46865 31871 ft 499 kts 129°
2026-05-04 11:37 36.10825 103.50113 32239 ft 499 kts 130°
2026-05-04 11:37 36.08557 103.53344 32616 ft 498 kts 129°
2026-05-04 11:37 36.06289 103.56578 33021 ft 497 kts 129°
2026-05-04 11:37 36.04050 103.59769 33368 ft 497 kts 129°
2026-05-04 11:38 36.01755 103.63035 33719 ft 497 kts 129°
2026-05-04 11:38 35.99485 103.66261 34020 ft 498 kts 129°
2026-05-04 11:38 35.97207 103.69494 34293 ft 499 kts 129°
2026-05-04 11:38 35.94961 103.72680 34523 ft 499 kts 130°
2026-05-04 11:39 35.92674 103.75921 34746 ft 501 kts 129°
2026-05-04 11:39 35.90351 103.79211 34955 ft 503 kts 130°
2026-05-04 11:40 35.76315 103.99008 35014 ft 519 kts 130°
2026-05-04 11:41 35.73940 104.02346 35014 ft 519 kts 130°
2026-05-04 11:41 35.69173 104.09042 35013 ft 519 kts 130°
2026-05-04 11:42 35.64404 104.15722 35008 ft 519 kts 130°
2026-05-04 11:42 35.59633 104.22391 35027 ft 520 kts 130°
2026-05-04 11:43 35.54756 104.28970 35027 ft 521 kts 137°
2026-05-04 11:43 35.51899 104.31696 35025 ft 520 kts 148°
2026-05-04 11:43 35.48712 104.33787 35025 ft 518 kts 159°
2026-05-04 11:44 35.41781 104.35857 35025 ft 511 kts 180°
2026-05-04 11:44 35.34698 104.35995 35005 ft 509 kts 182°
2026-05-04 11:45 35.27616 104.36111 35020 ft 509 kts 182°
2026-05-04 11:45 35.20528 104.36240 35022 ft 509 kts 182°
2026-05-04 11:46 35.13438 104.36360 35008 ft 509 kts 182°
2026-05-04 11:46 35.06352 104.36472 35014 ft 509 kts 182°
2026-05-04 11:47 34.99269 104.36583 35021 ft 509 kts 182°
2026-05-04 11:47 34.92178 104.36694 35024 ft 509 kts 182°
2026-05-04 11:48 34.85091 104.36816 35019 ft 510 kts 183°
2026-05-04 11:48 34.78035 104.36921 35023 ft 511 kts 183°
2026-05-04 11:49 34.70908 104.37020 35023 ft 512 kts 183°
2026-05-04 11:49 34.63776 104.37133 35020 ft 513 kts 183°
2026-05-04 11:50 34.56648 104.37252 35040 ft 513 kts 183°
2026-05-04 11:50 34.49502 104.37372 35051 ft 513 kts 183°
2026-05-04 11:51 34.42358 104.37484 35066 ft 513 kts 183°
2026-05-04 11:51 34.35218 104.37589 35064 ft 512 kts 183°
2026-05-04 11:52 34.28093 104.37693 35068 ft 512 kts 183°
2026-05-04 11:52 34.20970 104.37807 35068 ft 511 kts 183°
2026-05-04 11:53 34.13862 104.37919 35043 ft 511 kts 183°
2026-05-04 11:53 34.06746 104.38032 35027 ft 512 kts 183°
2026-05-04 11:55 33.78229 104.38477 35035 ft 513 kts 184°
2026-05-04 11:56 33.71089 104.38589 35037 ft 513 kts 184°
2026-05-04 11:56 33.63954 104.38883 35049 ft 517 kts 176°
2026-05-04 11:57 33.57022 104.41302 35047 ft 525 kts 156°
2026-05-04 11:57 33.50714 104.45680 35047 ft 528 kts 150°
2026-05-04 11:58 33.44413 104.50205 35065 ft 528 kts 151°
2026-05-04 11:58 33.37828 104.53970 35058 ft 522 kts 167°
2026-05-04 11:59 33.30744 104.55336 35058 ft 513 kts 182°
2026-05-04 11:59 33.23604 104.55773 35071 ft 515 kts 182°
2026-05-04 12:00 33.16445 104.56232 35075 ft 515 kts 182°
2026-05-04 12:00 33.09287 104.56701 35093 ft 516 kts 181°
2026-05-04 12:01 33.02114 104.57162 35106 ft 516 kts 182°
2026-05-04 12:02 32.76983 104.58762 35130 ft 517 kts 182°
2026-05-04 12:03 32.69796 104.59158 35131 ft 516 kts 183°
2026-05-04 12:03 32.63833 104.59401 35147 ft 516 kts 183°
2026-05-04 12:04 32.56658 104.59674 35155 ft 515 kts 183°
2026-05-04 12:04 32.49500 104.59983 35138 ft 515 kts 183°
2026-05-04 12:05 32.42334 104.60327 35143 ft 515 kts 183°
2026-05-04 12:05 32.35188 104.60685 35147 ft 515 kts 183°
2026-05-04 12:06 32.28018 104.61085 35119 ft 515 kts 183°
2026-05-04 12:06 32.20868 104.61501 35137 ft 515 kts 183°
2026-05-04 12:07 32.13706 104.61900 35144 ft 515 kts 183°
2026-05-04 12:07 32.06535 104.62277 35139 ft 515 kts 183°
2026-05-04 12:08 31.99390 104.62659 35111 ft 515 kts 184°
2026-05-04 12:08 31.92226 104.63051 35120 ft 515 kts 184°
2026-05-04 12:09 31.85062 104.63450 35115 ft 515 kts 184°
2026-05-04 12:09 31.77898 104.63841 35119 ft 515 kts 184°
2026-05-04 12:10 31.70727 104.64255 35090 ft 516 kts 184°
2026-05-04 12:10 31.63538 104.64715 35083 ft 517 kts 183°
2026-05-04 12:11 31.56399 104.65176 35010 ft 517 kts 184°
2026-05-04 12:11 31.52789 104.65405 34687 ft 509 kts 183°
2026-05-04 12:11 31.49327 104.65564 34365 ft 496 kts 189°
2026-05-04 12:12 31.45927 104.65117 34073 ft 476 kts 201°
2026-05-04 12:12 31.42830 104.64014 33761 ft 459 kts 211°
2026-05-04 12:12 31.39992 104.62313 33429 ft 461 kts 221°
2026-05-04 12:12 31.37430 104.60048 32976 ft 460 kts 230°
2026-05-04 12:13 31.35273 104.57331 32512 ft 454 kts 239°
2026-05-04 12:14 31.23543 104.35243 29404 ft 463 kts 244°
2026-05-04 12:15 31.21850 104.32040 28914 ft 464 kts 244°
2026-05-04 12:15 31.20146 104.28826 28410 ft 466 kts 243°
2026-05-04 12:15 31.18433 104.25596 27912 ft 468 kts 243°
2026-05-04 12:15 31.16716 104.22356 27421 ft 470 kts 243°
2026-05-04 12:16 31.14993 104.19100 26931 ft 472 kts 243°
2026-05-04 12:16 31.13274 104.15863 26617 ft 460 kts 243°
2026-05-04 12:16 31.11616 104.12758 26574 ft 445 kts 243°
2026-05-04 12:16 31.09904 104.09746 26589 ft 446 kts 237°
2026-05-04 12:17 31.07795 104.07068 26602 ft 452 kts 227°
2026-05-04 12:17 31.05267 104.04829 26600 ft 460 kts 217°
2026-05-04 12:17 31.02407 104.03124 26473 ft 467 kts 208°
2026-05-04 12:17 30.99391 104.01699 26229 ft 467 kts 207°
2026-05-04 12:18 30.96383 104.00286 25892 ft 465 kts 207°
2026-05-04 12:18 30.93383 103.98885 25167 ft 463 kts 206°
2026-05-04 12:18 30.90401 103.97491 24446 ft 462 kts 206°
2026-05-04 12:18 30.87422 103.96094 23726 ft 461 kts 206°
2026-05-04 12:19 30.84455 103.94699 22926 ft 459 kts 205°
2026-05-04 12:19 30.81506 103.93314 22232 ft 454 kts 205°
2026-05-04 12:19 30.78582 103.91947 21531 ft 450 kts 205°
2026-05-04 12:19 30.75691 103.90595 20816 ft 446 kts 205°
2026-05-04 12:20 30.72818 103.89252 20131 ft 442 kts 205°
2026-05-04 12:20 30.69981 103.87926 19468 ft 439 kts 205°
2026-05-04 12:20 30.67157 103.86608 18812 ft 436 kts 205°
2026-05-04 12:20 30.64351 103.85296 18161 ft 432 kts 205°
2026-05-04 12:21 30.61581 103.83998 17520 ft 428 kts 205°
2026-05-04 12:21 30.58838 103.82713 17035 ft 421 kts 205°
2026-05-04 12:21 30.56174 103.81471 16922 ft 404 kts 205°
2026-05-04 12:21 30.53609 103.80282 16809 ft 389 kts 204°
2026-05-04 12:22 30.51143 103.79143 16639 ft 375 kts 205°
2026-05-04 12:22 30.48759 103.78041 16473 ft 362 kts 205°
2026-05-04 12:22 30.46457 103.76973 16318 ft 350 kts 205°
2026-05-04 12:22 30.44229 103.75948 16168 ft 339 kts 204°
2026-05-04 12:23 30.42073 103.74961 16022 ft 328 kts 204°
2026-05-04 12:23 30.39988 103.74005 15870 ft 318 kts 204°
2026-05-04 12:23 30.37957 103.73075 15708 ft 308 kts 204°
2026-05-04 12:23 30.36000 103.72178 15224 ft 297 kts 204°
2026-05-04 12:24 30.34112 103.71314 14825 ft 291 kts 204°
2026-05-04 12:24 30.32251 103.70463 14376 ft 281 kts 204°
2026-05-04 12:24 30.30478 103.69652 14008 ft 267 kts 204°
2026-05-04 12:24 30.28809 103.68887 13643 ft 249 kts 204°
2026-05-04 12:25 30.27253 103.68163 13231 ft 233 kts 204°
2026-05-04 12:25 30.25773 103.67469 12896 ft 226 kts 204°
2026-05-04 12:25 30.24344 103.66799 12567 ft 223 kts 204°
2026-05-04 12:25 30.22889 103.66118 12232 ft 222 kts 204°
2026-05-04 12:26 30.21484 103.65460 11921 ft 220 kts 204°
2026-05-04 12:26 30.20069 103.64801 11659 ft 217 kts 203°
2026-05-04 12:26 30.18576 103.64581 11603 ft 222 kts 171°
2026-05-04 12:26 30.17237 103.65430 11413 ft 226 kts 133°
2026-05-04 12:27 30.16515 103.67024 11073 ft 223 kts 112°
2026-05-04 12:27 30.15943 103.68686 10751 ft 222 kts 112°
2026-05-04 12:27 30.15367 103.70335 10431 ft 221 kts 113°
2026-05-04 12:27 30.14789 103.71977 10115 ft 220 kts 113°
2026-05-04 12:28 30.14249 103.73621 9812 ft 219 kts 105°
2026-05-04 12:28 30.14360 103.75348 9479 ft 218 kts 67°
2026-05-04 12:28 30.15331 103.76652 9183 ft 216 kts 29°
2026-05-04 12:28 30.16717 103.77214 8930 ft 215 kts 15°
2026-05-04 12:29 30.18118 103.77809 8628 ft 215 kts 24°
2026-05-04 12:29 30.19460 103.78556 8351 ft 213 kts 24°
2026-05-04 12:29 30.20820 103.79235 8072 ft 213 kts 22°
2026-05-04 12:29 30.22184 103.79874 7715 ft 211 kts 21°
2026-05-04 12:30 30.23524 103.80493 7437 ft 204 kts 21°
2026-05-04 12:30 30.24837 103.81100 7169 ft 197 kts 21°
2026-05-04 12:30 30.26091 103.81679 6917 ft 191 kts 21°
2026-05-04 12:30 30.27281 103.82229 6693 ft 181 kts 22°
2026-05-04 12:31 30.28402 103.82747 6480 ft 167 kts 22°
2026-05-04 12:31 30.29463 103.83238 6251 ft 162 kts 22°
2026-05-04 12:31 30.30505 103.83721 6048 ft 161 kts 22°
2026-05-04 12:31 30.31545 103.84202 5830 ft 161 kts 22°
2026-05-04 12:32 30.32581 103.84681 5619 ft 160 kts 22°
2026-05-04 12:32 30.34639 103.85634 5205 ft 159 kts 22°
2026-05-04 12:32 30.35672 103.86113 5005 ft 160 kts 23°
2026-05-04 12:33 30.36707 103.86592 4801 ft 160 kts 23°
2026-05-04 12:33 30.37737 103.87070 4588 ft 159 kts 23°
2026-05-04 12:33 30.38764 103.87545 4385 ft 159 kts 23°
2026-05-04 12:33 30.39792 103.88022 4175 ft 159 kts 23°
2026-05-04 12:34 30.40815 103.88496 3964 ft 158 kts 23°
2026-05-04 12:34 30.41833 103.88968 3762 ft 158 kts 23°
2026-05-04 12:34 30.42852 103.89441 3560 ft 157 kts 23°
2026-05-04 12:34 30.43868 103.89913 3359 ft 157 kts 23°
2026-05-04 12:35 30.44878 103.90381 3160 ft 157 kts 23°
2026-05-04 12:35 30.45889 103.90850 2960 ft 156 kts 24°
2026-05-04 12:35 30.46898 103.91318 2746 ft 155 kts 23°
2026-05-04 12:35 30.47888 103.91774 2550 ft 154 kts 23°
2026-05-04 12:36 30.48877 103.92235 2395 ft 153 kts 22°
2026-05-04 12:36 30.49871 103.92693 2165 ft 153 kts 22°
2026-05-04 12:36 30.50845 103.93154 1982 ft 150 kts 21°
2026-05-04 12:36 30.51810 103.93600 1742 ft 148 kts 22°
2026-05-04 12:37 30.52720 103.94028 1677 ft 125 kts 22°
2026-05-04 12:37 30.53364 103.94327 1670 ft 75 kts 22°
2026-05-04 12:37 30.53694 103.94480 1663 ft 35 kts 21°
2026-05-04 12:37 30.53919 103.94584 1652 ft 32 kts 21°
2026-05-04 12:38 30.54127 103.94618 1649 ft 24 kts 358°